GFA182 OEJN-OBBI

Flight info

Callsign GFA182
Flight time 1h 37m
Altitude 35000
Route EGREP B417 PATOR T532 DAW DCT TASBA J852 KAVUR DCT KINIB N687 MIBRA J749 KFA H732 LADNA
Aircraft A320/M-SDE3FGHIRWY/LB1

Departure

Time 2026-04-28 22:33
Airport King Abdulaziz International Airport (OEJN)

Arrival

Time 2026-04-29 00:10
Airport Bahrain International Airport (OBBI)
Time Latitude Longitude Altitude Speed Heading
2026-04-28 22:01 21.67118 39.16803 34 ft 0 kts 185°
2026-04-28 22:20 21.67130 39.16804 33 ft 4 kts 186°
2026-04-28 22:20 21.67157 39.16808 30 ft 4 kts 190°
2026-04-28 22:20 21.67183 39.16815 30 ft 4 kts 200°
2026-04-28 22:20 21.67205 39.16828 30 ft 4 kts 234°
2026-04-28 22:21 21.67211 39.16841 31 ft 0 kts 276°
2026-04-28 22:24 21.67211 39.16838 33 ft 1 kts 276°
2026-04-28 22:24 21.67213 39.16817 33 ft 5 kts 276°
2026-04-28 22:24 21.67220 39.16768 31 ft 9 kts 278°
2026-04-28 22:25 21.67227 39.16690 32 ft 12 kts 275°
2026-04-28 22:25 21.67241 39.16584 32 ft 16 kts 282°
2026-04-28 22:25 21.67318 39.16501 32 ft 17 kts 337°
2026-04-28 22:25 21.67437 39.16458 30 ft 19 kts 342°
2026-04-28 22:26 21.67546 39.16414 31 ft 14 kts 338°
2026-04-28 22:26 21.67551 39.16317 30 ft 15 kts 250°
2026-04-28 22:26 21.67517 39.16219 30 ft 13 kts 249°
2026-04-28 22:26 21.67467 39.16156 30 ft 11 kts 183°
2026-04-28 22:27 21.67401 39.16178 30 ft 9 kts 158°
2026-04-28 22:27 21.67349 39.16201 31 ft 7 kts 158°
2026-04-28 22:27 21.67304 39.16219 31 ft 7 kts 159°
2026-04-28 22:27 21.67251 39.16241 32 ft 10 kts 159°
2026-04-28 22:28 21.67176 39.16272 32 ft 13 kts 159°
2026-04-28 22:28 21.67076 39.16312 33 ft 17 kts 159°
2026-04-28 22:28 21.66950 39.16364 33 ft 21 kts 160°
2026-04-28 22:28 21.66797 39.16423 34 ft 26 kts 160°
2026-04-28 22:29 21.66615 39.16493 35 ft 29 kts 160°
2026-04-28 22:29 21.66474 39.16550 35 ft 15 kts 159°
2026-04-28 22:29 21.66364 39.16595 35 ft 19 kts 160°
2026-04-28 22:29 21.66250 39.16640 35 ft 13 kts 157°
2026-04-28 22:30 21.66173 39.16596 35 ft 16 kts 246°
2026-04-28 22:30 21.66139 39.16498 34 ft 8 kts 251°
2026-04-28 22:30 21.66172 39.16465 34 ft 2 kts 341°
2026-04-28 22:30 21.66173 39.16464 34 ft 0 kts 342°
2026-04-28 22:32 21.66257 39.16432 33 ft 34 kts 340°
2026-04-28 22:32 21.66708 39.16255 36 ft 101 kts 340°
2026-04-28 22:32 21.67529 39.15932 31 ft 151 kts 340°
2026-04-28 22:32 21.68619 39.15516 344 ft 168 kts 340°
2026-04-28 22:33 21.69700 39.15088 1112 ft 164 kts 341°
2026-04-28 22:33 21.70763 39.14662 1743 ft 166 kts 341°
2026-04-28 22:33 21.71918 39.14205 2014 ft 188 kts 340°
2026-04-28 22:33 21.73225 39.13690 2291 ft 213 kts 339°
2026-04-28 22:34 21.74696 39.13106 2666 ft 237 kts 339°
2026-04-28 22:34 21.76291 39.12474 3269 ft 249 kts 338°
2026-04-28 22:34 21.77936 39.11823 4008 ft 255 kts 337°
2026-04-28 22:34 21.79622 39.11156 4738 ft 262 kts 337°
2026-04-28 22:35 21.81358 39.10469 5459 ft 270 kts 337°
2026-04-28 22:35 21.83163 39.09755 5894 ft 278 kts 336°
2026-04-28 22:35 21.84996 39.09032 5988 ft 281 kts 336°
2026-04-28 22:35 21.86839 39.08306 5998 ft 282 kts 336°
2026-04-28 22:36 21.88675 39.07584 6187 ft 281 kts 336°
2026-04-28 22:36 21.90493 39.06845 6426 ft 284 kts 335°
2026-04-28 22:36 21.92422 39.06349 6696 ft 291 kts 357°
2026-04-28 22:36 21.94467 39.06751 7102 ft 314 kts 21°
2026-04-28 22:37 21.96291 39.08188 7343 ft 341 kts 49°
2026-04-28 22:37 21.97770 39.10284 7706 ft 357 kts 54°
2026-04-28 22:37 21.99239 39.12482 8330 ft 364 kts 54°
2026-04-28 22:37 22.00715 39.14725 9054 ft 369 kts 54°
2026-04-28 22:38 22.02203 39.16991 9793 ft 373 kts 54°
2026-04-28 22:38 22.03713 39.19277 10454 ft 377 kts 54°
2026-04-28 22:38 22.05250 39.21586 11104 ft 381 kts 54°
2026-04-28 22:38 22.06811 39.23920 11736 ft 385 kts 54°
2026-04-28 22:39 22.08389 39.26273 12364 ft 389 kts 54°
2026-04-28 22:39 22.09986 39.28657 12978 ft 394 kts 53°
2026-04-28 22:39 22.11577 39.31031 13578 ft 398 kts 53°
2026-04-28 22:39 22.13207 39.33465 14132 ft 402 kts 53°
2026-04-28 22:40 22.14852 39.35923 14675 ft 405 kts 54°
2026-04-28 22:40 22.16515 39.38411 15263 ft 407 kts 54°
2026-04-28 22:40 22.18176 39.40898 15824 ft 411 kts 54°
2026-04-28 22:40 22.19856 39.43415 16345 ft 415 kts 54°
2026-04-28 22:41 22.21528 39.45923 16867 ft 419 kts 54°
2026-04-28 22:41 22.23238 39.48489 17377 ft 422 kts 54°
2026-04-28 22:41 22.24958 39.51072 17892 ft 426 kts 54°
2026-04-28 22:41 22.26695 39.53686 18368 ft 430 kts 54°
2026-04-28 22:42 22.28450 39.56323 18784 ft 434 kts 53°
2026-04-28 22:42 22.30223 39.58983 19204 ft 439 kts 53°
2026-04-28 22:42 22.32009 39.61662 19618 ft 442 kts 53°
2026-04-28 22:42 22.33818 39.64377 20090 ft 443 kts 53°
2026-04-28 22:43 22.35604 39.67068 20775 ft 441 kts 53°
2026-04-28 22:43 22.37392 39.69769 21238 ft 443 kts 53°
2026-04-28 22:43 22.39197 39.72494 21646 ft 447 kts 53°
2026-04-28 22:43 22.41017 39.75242 22038 ft 452 kts 53°
2026-04-28 22:44 22.42832 39.77978 22450 ft 456 kts 53°
2026-04-28 22:44 22.44693 39.80779 22819 ft 459 kts 53°
2026-04-28 22:44 22.46670 39.83496 23191 ft 461 kts 45°
2026-04-28 22:44 22.48985 39.85898 23497 ft 463 kts 39°
2026-04-28 22:45 22.51408 39.88203 23820 ft 465 kts 39°
2026-04-28 22:45 22.53849 39.90523 24133 ft 468 kts 38°
2026-04-28 22:45 22.56304 39.92855 24494 ft 470 kts 38°
2026-04-28 22:45 22.58766 39.95201 24843 ft 472 kts 38°
2026-04-28 22:46 22.61234 39.97561 25176 ft 474 kts 38°
2026-04-28 22:46 22.63704 39.99924 25511 ft 476 kts 38°
2026-04-28 22:46 22.66197 40.02308 25838 ft 478 kts 38°
2026-04-28 22:46 22.68689 40.04691 26173 ft 480 kts 38°
2026-04-28 22:47 22.71204 40.07097 26508 ft 481 kts 37°
2026-04-28 22:47 22.73684 40.09471 26789 ft 484 kts 37°
2026-04-28 22:47 22.76208 40.11891 27071 ft 486 kts 37°
2026-04-28 22:47 22.78748 40.14329 27371 ft 488 kts 37°
2026-04-28 22:48 22.81292 40.16775 27654 ft 490 kts 37°
2026-04-28 22:48 22.83841 40.19226 27932 ft 492 kts 37°
2026-04-28 22:48 22.86410 40.21690 28208 ft 494 kts 37°
2026-04-28 22:48 22.88988 40.24163 28480 ft 496 kts 36°
2026-04-28 22:49 22.91574 40.26650 28708 ft 499 kts 36°
2026-04-28 22:49 22.94175 40.29154 28925 ft 501 kts 36°
2026-04-28 22:49 22.96789 40.31669 29173 ft 503 kts 36°
2026-04-28 22:49 22.99414 40.34198 29415 ft 505 kts 36°
2026-04-28 22:50 23.02047 40.36733 29634 ft 507 kts 36°
2026-04-28 22:50 23.04689 40.39279 29856 ft 509 kts 36°
2026-04-28 22:50 23.07337 40.41835 30073 ft 510 kts 36°
2026-04-28 22:50 23.09994 40.44398 30260 ft 512 kts 36°
2026-04-28 22:51 23.12671 40.46978 30375 ft 516 kts 36°
2026-04-28 22:51 23.15358 40.49570 30551 ft 517 kts 36°
2026-04-28 22:51 23.18051 40.52172 30732 ft 518 kts 36°
2026-04-28 22:51 23.20744 40.54781 30921 ft 519 kts 37°
2026-04-28 22:52 23.23409 40.57371 31099 ft 521 kts 38°
2026-04-28 22:52 23.25913 40.60246 31288 ft 527 kts 47°
2026-04-28 22:52 23.28024 40.63523 31556 ft 532 kts 57°
2026-04-28 22:52 23.29694 40.67132 31718 ft 537 kts 66°
2026-04-28 22:53 23.31030 40.70932 31938 ft 538 kts 68°
2026-04-28 22:53 23.32350 40.74741 32193 ft 538 kts 68°
2026-04-28 22:53 23.33666 40.78549 32465 ft 537 kts 68°
2026-04-28 22:53 23.34981 40.82353 32737 ft 537 kts 68°
2026-04-28 22:54 23.36301 40.86154 33029 ft 536 kts 68°
2026-04-28 22:54 23.37616 40.89943 33325 ft 535 kts 68°
2026-04-28 22:54 23.38928 40.93728 33644 ft 533 kts 68°
2026-04-28 22:54 23.40236 40.97502 33972 ft 532 kts 68°
2026-04-28 22:55 23.41542 41.01274 34215 ft 532 kts 68°
2026-04-28 22:55 23.42840 41.05038 34449 ft 532 kts 69°
2026-04-28 22:55 23.44138 41.08808 34700 ft 531 kts 69°
2026-04-28 22:55 23.45434 41.12571 34935 ft 531 kts 69°
2026-04-28 22:56 23.46708 41.16271 35000 ft 527 kts 69°
2026-04-28 22:56 23.49269 41.23716 35016 ft 523 kts 69°
2026-04-28 22:57 23.51819 41.31130 35014 ft 522 kts 69°
2026-04-28 22:57 23.54361 41.38545 35013 ft 522 kts 69°
2026-04-28 22:58 23.56902 41.45970 35009 ft 523 kts 69°
2026-04-28 22:58 23.59440 41.53408 35013 ft 523 kts 69°
2026-04-28 22:59 23.61969 41.60832 34996 ft 522 kts 69°
2026-04-28 22:59 23.64481 41.68210 35006 ft 522 kts 69°
2026-04-28 23:00 23.66997 41.75626 35018 ft 522 kts 69°
2026-04-28 23:00 23.69453 41.83093 35007 ft 523 kts 70°
2026-04-28 23:01 23.71812 41.90606 35010 ft 523 kts 71°
2026-04-28 23:01 23.74159 41.98121 35011 ft 523 kts 70°
2026-04-28 23:02 23.76610 42.05588 35011 ft 522 kts 69°
2026-04-28 23:02 23.79199 42.13008 35016 ft 522 kts 68°
2026-04-28 23:03 23.81787 42.20409 35006 ft 522 kts 68°
2026-04-28 23:03 23.84309 42.27792 35017 ft 521 kts 69°
2026-04-28 23:04 23.86809 42.35215 35026 ft 520 kts 69°
2026-04-28 23:04 23.90562 42.46340 35026 ft 519 kts 69°
2026-04-28 23:05 23.92652 42.52499 35019 ft 519 kts 69°
2026-04-28 23:05 23.95572 42.61111 35008 ft 520 kts 69°
2026-04-28 23:06 23.97668 42.67327 35005 ft 520 kts 69°
2026-04-28 23:06 24.00143 42.74692 35008 ft 519 kts 69°
2026-04-28 23:07 24.02636 42.82125 35016 ft 520 kts 69°
2026-04-28 23:07 24.05131 42.89556 35008 ft 520 kts 69°
2026-04-28 23:08 24.07609 42.97011 35005 ft 521 kts 69°
2026-04-28 23:08 24.10042 43.04423 35001 ft 521 kts 69°
2026-04-28 23:09 24.12482 43.11887 35019 ft 521 kts 70°
2026-04-28 23:09 24.14927 43.19359 34991 ft 522 kts 69°
2026-04-28 23:10 24.17374 43.26845 34980 ft 522 kts 69°
2026-04-28 23:10 24.19825 43.34336 34995 ft 522 kts 69°
2026-04-28 23:11 24.22278 43.41825 34995 ft 522 kts 70°
2026-04-28 23:11 24.24719 43.49329 35003 ft 523 kts 69°
2026-04-28 23:12 24.27158 43.56841 34997 ft 523 kts 70°
2026-04-28 23:12 24.29593 43.64352 34987 ft 523 kts 69°
2026-04-28 23:13 24.32022 43.71873 34997 ft 523 kts 70°
2026-04-28 23:13 24.34449 43.79383 35008 ft 523 kts 69°
2026-04-28 23:14 24.36858 43.86851 34995 ft 523 kts 70°
2026-04-28 23:14 24.39278 43.94380 34998 ft 523 kts 70°
2026-04-28 23:15 24.41694 44.01909 34998 ft 523 kts 70°
2026-04-28 23:15 24.44105 44.09445 34956 ft 523 kts 70°
2026-04-28 23:16 24.45822 44.17198 34965 ft 524 kts 79°
2026-04-28 23:16 24.47186 44.25063 34950 ft 525 kts 79°
2026-04-28 23:17 24.48562 44.32941 34954 ft 525 kts 79°
2026-04-28 23:17 24.49931 44.40826 34969 ft 526 kts 79°
2026-04-28 23:18 24.51284 44.48662 34983 ft 525 kts 79°
2026-04-28 23:18 24.52641 44.56549 35003 ft 525 kts 79°
2026-04-28 23:19 24.53993 44.64440 34977 ft 526 kts 79°
2026-04-28 23:19 24.55344 44.72335 34980 ft 526 kts 79°
2026-04-28 23:20 24.56692 44.80227 34975 ft 526 kts 79°
2026-04-28 23:20 24.58032 44.88128 34977 ft 526 kts 79°
2026-04-28 23:21 24.59368 44.96023 34981 ft 526 kts 80°
2026-04-28 23:21 24.60704 45.03927 34955 ft 526 kts 79°
2026-04-28 23:22 24.62032 45.11858 34948 ft 527 kts 80°
2026-04-28 23:22 24.63353 45.19784 34959 ft 527 kts 79°
2026-04-28 23:23 24.64671 45.27654 34959 ft 527 kts 79°
2026-04-28 23:23 24.65999 45.35571 34953 ft 526 kts 79°
2026-04-28 23:24 24.67309 45.43490 34947 ft 527 kts 80°
2026-04-28 23:24 24.68615 45.51434 34937 ft 527 kts 79°
2026-04-28 23:25 24.69920 45.59384 34952 ft 528 kts 79°
2026-04-28 23:25 24.71337 45.67312 34946 ft 528 kts 73°
2026-04-28 23:26 24.73937 45.74839 34943 ft 527 kts 65°
2026-04-28 23:26 24.76693 45.82268 34950 ft 527 kts 66°
2026-04-28 23:27 24.79451 45.89746 34954 ft 528 kts 66°
2026-04-28 23:27 24.82213 45.97248 34960 ft 528 kts 66°
2026-04-28 23:28 24.84962 46.04737 34962 ft 528 kts 66°
2026-04-28 23:28 24.87700 46.12185 34965 ft 528 kts 66°
2026-04-28 23:29 24.90457 46.19689 34954 ft 528 kts 66°
2026-04-28 23:29 24.93199 46.27191 34971 ft 528 kts 66°
2026-04-28 23:30 24.95939 46.34700 34962 ft 528 kts 66°
2026-04-28 23:30 24.98675 46.42210 34948 ft 528 kts 66°
2026-04-28 23:31 25.01410 46.49722 34942 ft 528 kts 66°
2026-04-28 23:31 25.04130 46.57196 34937 ft 528 kts 66°
2026-04-28 23:32 25.06854 46.64712 34923 ft 528 kts 66°
2026-04-28 23:32 25.09580 46.72250 34925 ft 529 kts 66°
2026-04-28 23:33 25.12300 46.79788 34932 ft 529 kts 66°
2026-04-28 23:33 25.15019 46.87335 34934 ft 529 kts 66°
2026-04-28 23:34 25.17739 46.94886 34947 ft 529 kts 66°
2026-04-28 23:34 25.20449 47.02424 34931 ft 529 kts 66°
2026-04-28 23:35 25.23140 47.09927 34925 ft 529 kts 66°
2026-04-28 23:35 25.25844 47.17476 34923 ft 528 kts 66°
2026-04-28 23:36 25.28539 47.25037 34925 ft 529 kts 66°
2026-04-28 23:36 25.31234 47.32613 34917 ft 529 kts 66°
2026-04-28 23:37 25.33928 47.40174 34906 ft 529 kts 66°
2026-04-28 23:37 25.36614 47.47739 34908 ft 528 kts 66°
2026-04-28 23:38 25.39304 47.55309 34909 ft 528 kts 67°
2026-04-28 23:38 25.41980 47.62877 34915 ft 528 kts 67°
2026-04-28 23:39 25.44658 47.70453 34907 ft 529 kts 67°
2026-04-28 23:39 25.47314 47.77991 34897 ft 529 kts 67°
2026-04-28 23:40 25.49985 47.85587 34899 ft 529 kts 67°
2026-04-28 23:40 25.52654 47.93192 34889 ft 529 kts 67°
2026-04-28 23:41 25.55323 48.00787 34892 ft 529 kts 67°
2026-04-28 23:41 25.57979 48.08393 34893 ft 530 kts 67°
2026-04-28 23:42 25.60633 48.16018 34892 ft 530 kts 67°
2026-04-28 23:42 25.63295 48.23644 34894 ft 530 kts 67°
2026-04-28 23:43 25.65931 48.31224 34890 ft 531 kts 67°
2026-04-28 23:43 25.68710 48.38805 34889 ft 528 kts 59°
2026-04-28 23:44 25.72537 48.45709 34880 ft 525 kts 54°
2026-04-28 23:44 25.76454 48.52542 34873 ft 525 kts 54°
2026-04-28 23:45 25.80362 48.59395 34867 ft 524 kts 54°
2026-04-28 23:45 25.84259 48.66232 34867 ft 524 kts 54°
2026-04-28 23:46 25.88137 48.73034 34862 ft 524 kts 54°
2026-04-28 23:46 25.92034 48.79877 34851 ft 524 kts 54°
2026-04-28 23:47 25.95947 48.86744 34844 ft 524 kts 53°
2026-04-28 23:47 25.99952 48.93515 34857 ft 524 kts 52°
2026-04-28 23:48 26.04018 49.00255 34842 ft 525 kts 52°
2026-04-28 23:48 26.08068 49.07016 34841 ft 525 kts 52°
2026-04-28 23:49 26.12065 49.13764 34773 ft 527 kts 53°
2026-04-28 23:49 26.14115 49.17233 33919 ft 531 kts 52°
2026-04-28 23:49 26.16097 49.20595 33313 ft 519 kts 53°
2026-04-28 23:50 26.18048 49.23918 32772 ft 508 kts 53°
2026-04-28 23:50 26.19965 49.27187 32203 ft 502 kts 53°
2026-04-28 23:50 26.21888 49.30459 31637 ft 501 kts 53°
2026-04-28 23:50 26.23797 49.33706 31091 ft 500 kts 53°
2026-04-28 23:51 26.25706 49.36940 30540 ft 499 kts 53°
2026-04-28 23:51 26.27622 49.40171 29987 ft 498 kts 53°
2026-04-28 23:51 26.29512 49.43353 29387 ft 497 kts 54°
2026-04-28 23:51 26.31408 49.46554 28854 ft 493 kts 54°
2026-04-28 23:52 26.33280 49.49733 28322 ft 489 kts 54°
2026-04-28 23:52 26.35136 49.52893 27796 ft 485 kts 54°
2026-04-28 23:52 26.36977 49.56030 27286 ft 482 kts 55°
2026-04-28 23:52 26.38803 49.59145 26779 ft 478 kts 55°
2026-04-28 23:53 26.40613 49.62234 26282 ft 474 kts 55°
2026-04-28 23:53 26.42408 49.65297 25792 ft 470 kts 55°
2026-04-28 23:53 26.43615 49.67358 25459 ft 468 kts 56°
2026-04-28 23:53 26.45387 49.70387 24967 ft 465 kts 56°
2026-04-28 23:54 26.47113 49.73371 24473 ft 462 kts 59°
2026-04-28 23:54 26.48484 49.76607 23973 ft 459 kts 72°
2026-04-28 23:54 26.49255 49.80039 23461 ft 454 kts 85°
2026-04-28 23:54 26.49307 49.83491 23132 ft 438 kts 101°
2026-04-28 23:55 26.48754 49.86818 22001 ft 437 kts 108°
2026-04-28 23:55 26.48056 49.90109 21080 ft 432 kts 108°
2026-04-28 23:55 26.47338 49.93332 20321 ft 422 kts 108°
2026-04-28 23:55 26.46626 49.96480 19609 ft 414 kts 108°
2026-04-28 23:56 26.45942 49.99521 18916 ft 406 kts 107°
2026-04-28 23:56 26.45259 50.02594 18226 ft 399 kts 107°
2026-04-28 23:56 26.44606 50.05576 17454 ft 392 kts 106°
2026-04-28 23:56 26.43968 50.08507 16689 ft 386 kts 106°
2026-04-28 23:57 26.43336 50.11399 15941 ft 380 kts 106°
2026-04-28 23:57 26.42721 50.14208 15210 ft 375 kts 107°
2026-04-28 23:57 26.42103 50.17011 14510 ft 369 kts 107°
2026-04-28 23:57 26.41494 50.19774 13809 ft 364 kts 106°
2026-04-28 23:58 26.40896 50.22497 13070 ft 359 kts 106°
2026-04-28 23:58 26.40305 50.25187 12314 ft 354 kts 106°
2026-04-28 23:58 26.39721 50.27834 11578 ft 349 kts 106°
2026-04-28 23:58 26.39144 50.30443 10858 ft 344 kts 106°
2026-04-28 23:59 26.38578 50.33008 10113 ft 340 kts 106°
2026-04-28 23:59 26.38014 50.35561 9270 ft 338 kts 106°
2026-04-28 23:59 26.37454 50.38098 8395 ft 335 kts 106°
2026-04-28 23:59 26.36898 50.40623 7437 ft 335 kts 105°
2026-04-29 00:00 26.36339 50.43147 6503 ft 335 kts 105°
2026-04-29 00:00 26.35781 50.45664 5548 ft 333 kts 104°
2026-04-29 00:00 26.35227 50.48165 4593 ft 330 kts 104°
2026-04-29 00:00 26.34462 50.50547 3620 ft 325 kts 118°
2026-04-29 00:01 26.33285 50.52679 2661 ft 321 kts 123°
2026-04-29 00:01 26.32077 50.54704 1929 ft 312 kts 123°
2026-04-29 00:01 26.30932 50.56673 1666 ft 286 kts 122°
2026-04-29 00:01 26.29912 50.58449 1549 ft 259 kts 121°
2026-04-29 00:02 26.28962 50.60103 1438 ft 268 kts 121°
2026-04-29 00:02 26.27877 50.61989 1784 ft 299 kts 121°
2026-04-29 00:02 26.26794 50.63861 3200 ft 269 kts 122°
2026-04-29 00:02 26.25893 50.65411 4545 ft 223 kts 122°
2026-04-29 00:03 26.25049 50.66869 4597 ft 225 kts 122°
2026-04-29 00:03 26.24179 50.68333 4228 ft 227 kts 123°
2026-04-29 00:03 26.23297 50.69795 3911 ft 226 kts 123°
2026-04-29 00:03 26.22457 50.71289 3471 ft 231 kts 111°
2026-04-29 00:04 26.22255 50.73049 3009 ft 234 kts 79°
2026-04-29 00:04 26.22955 50.74673 2612 ft 236 kts 46°
2026-04-29 00:04 26.24317 50.75563 2524 ft 224 kts 12°
2026-04-29 00:04 26.25837 50.75445 2533 ft 224 kts 339°
2026-04-29 00:05 26.27068 50.74391 2530 ft 228 kts 309°
2026-04-29 00:05 26.27975 50.72933 2532 ft 230 kts 304°
2026-04-29 00:05 26.28824 50.71420 2532 ft 230 kts 303°
2026-04-29 00:05 26.29665 50.69898 2540 ft 230 kts 303°
2026-04-29 00:06 26.30503 50.68378 2532 ft 230 kts 303°
2026-04-29 00:06 26.31340 50.66852 2536 ft 231 kts 303°
2026-04-29 00:06 26.32167 50.65342 2532 ft 230 kts 303°
2026-04-29 00:06 26.33002 50.63814 2535 ft 232 kts 302°
2026-04-29 00:07 26.33852 50.62298 2528 ft 231 kts 303°
2026-04-29 00:07 26.34699 50.60778 2527 ft 230 kts 298°
2026-04-29 00:07 26.35062 50.59078 2470 ft 224 kts 265°
2026-04-29 00:07 26.34549 50.57502 2358 ft 215 kts 232°
2026-04-29 00:08 26.33501 50.56359 2230 ft 207 kts 211°
2026-04-29 00:08 26.32248 50.55608 2059 ft 203 kts 204°
2026-04-29 00:08 26.30943 50.55339 2062 ft 182 kts 161°
2026-04-29 00:08 26.30217 50.56307 1784 ft 170 kts 97°
2026-04-29 00:09 26.30089 50.57624 1240 ft 171 kts 102°
2026-04-29 00:09 26.29621 50.58819 733 ft 168 kts 117°
2026-04-29 00:09 26.29055 50.59907 477 ft 155 kts 122°
2026-04-29 00:09 26.28502 50.60895 297 ft 147 kts 122°
2026-04-29 00:10 26.27957 50.61852 92 ft 146 kts 123°
2026-04-29 00:10 26.27433 50.62757 18 ft 126 kts 123°
2026-04-29 00:10 26.27046 50.63428 15 ft 79 kts 122°
2026-04-29 00:10 26.26899 50.63684 15 ft 16 kts 123°
2026-04-29 00:11 26.26815 50.63739 17 ft 13 kts 166°
2026-04-29 00:11 26.26739 50.63759 18 ft 10 kts 168°
2026-04-29 00:11 26.26687 50.63696 21 ft 11 kts 291°
2026-04-29 00:12 26.26728 50.63623 21 ft 11 kts 303°
2026-04-29 00:12 26.26773 50.63544 19 ft 13 kts 302°
2026-04-29 00:12 26.26824 50.63454 19 ft 10 kts 302°
2026-04-29 00:12 26.26828 50.63391 20 ft 7 kts 233°
2026-04-29 00:13 26.26794 50.63360 21 ft 7 kts 227°
2026-04-29 00:13 26.26794 50.63300 21 ft 9 kts 297°
2026-04-29 00:13 26.26825 50.63247 21 ft 8 kts 303°
2026-04-29 00:13 26.26845 50.63196 21 ft 6 kts 249°
2026-04-29 00:14 26.26820 50.63166 21 ft 5 kts 210°
2026-04-29 00:14 26.26793 50.63148 21 ft 4 kts 211°
2026-04-29 00:14 26.26772 50.63133 22 ft 1 kts 213°
2026-04-29 00:14 26.26771 50.63132 22 ft 0 kts 213°
2026-04-29 00:37 26.27888 50.61968 21 ft 0 kts 122°
2026-04-29 00:39 26.27885 50.61973 18 ft 6 kts 123°
2026-04-29 00:40 26.27691 50.62307 16 ft 101 kts 123°
2026-04-29 00:40 26.27162 50.63224 18 ft 175 kts 122°
2026-04-29 00:40 26.26545 50.64328 1068 ft 154 kts 120°
2026-04-29 00:40 26.25953 50.65423 1528 ft 178 kts 118°
2026-04-29 00:41 26.25266 50.66688 1777 ft 202 kts 119°
2026-04-29 00:41 26.24487 50.68133 1786 ft 234 kts 119°
2026-04-29 00:41 26.23594 50.69814 1785 ft 269 kts 117°
2026-04-29 00:41 26.23026 50.71801 1780 ft 294 kts 94°
2026-04-29 00:42 26.23309 50.74131 1790 ft 312 kts 69°
2026-04-29 00:42 26.24524 50.76243 1790 ft 324 kts 45°
2026-04-29 00:42 26.26412 50.77654 1789 ft 333 kts 25°
2026-04-29 00:42 26.28514 50.78660 1783 ft 322 kts 23°
2026-04-29 00:43 26.30556 50.79602 1781 ft 314 kts 23°
2026-04-29 00:43 26.32478 50.80486 1779 ft 270 kts 23°
2026-04-29 00:43 26.34063 50.81211 1791 ft 240 kts 23°
2026-04-29 00:43 26.35673 50.81822 1792 ft 249 kts
2026-04-29 00:44 26.37385 50.81605 1796 ft 253 kts 339°
2026-04-29 00:44 26.38788 50.80456 1795 ft 256 kts 309°
2026-04-29 00:44 26.39506 50.78659 1795 ft 256 kts 279°
2026-04-29 00:44 26.39331 50.76696 1787 ft 258 kts 251°
2026-04-29 00:45 26.38753 50.74804 1790 ft 258 kts 260°
2026-04-29 00:45 26.38509 50.72827 1788 ft 258 kts 256°
2026-04-29 00:45 26.37757 50.71015 1783 ft 259 kts 239°
2026-04-29 00:45 26.36814 50.69308 1782 ft 255 kts 238°
2026-04-29 00:46 26.35903 50.67699 1784 ft 234 kts 238°
2026-04-29 00:46 26.35071 50.66261 1718 ft 209 kts 237°
2026-04-29 00:46 26.34258 50.64990 1530 ft 196 kts 227°
2026-04-29 00:46 26.33268 50.64009 1232 ft 185 kts 217°
2026-04-29 00:47 26.32292 50.63199 1004 ft 165 kts 212°
2026-04-29 00:47 26.31346 50.62562 719 ft 153 kts 208°
2026-04-29 00:47 26.30402 50.62064 463 ft 147 kts 199°
2026-04-29 00:47 26.29415 50.61901 371 ft 144 kts 178°
2026-04-29 00:48 26.28419 50.61988 217 ft 142 kts 167°
2026-04-29 00:48 26.27596 50.62524 53 ft 136 kts 123°
2026-04-29 00:48 26.27112 50.63317 25 ft 113 kts 122°
2026-04-29 00:48 26.26806 50.63842 18 ft 26 kts 124°
2026-04-29 00:49 26.26727 50.63855 17 ft 8 kts 222°
2026-04-29 00:49 26.26723 50.63851 20 ft 0 kts 222°
2026-04-29 00:52 26.26716 50.63844 19 ft 8 kts 222°
2026-04-29 00:52 26.26679 50.63729 21 ft 18 kts 277°
2026-04-29 00:52 26.26732 50.63614 23 ft 18 kts 303°
2026-04-29 00:53 26.26808 50.63482 20 ft 23 kts 302°
2026-04-29 00:53 26.26984 50.63179 20 ft 94 kts 303°
2026-04-29 00:53 26.27527 50.62293 146 ft 168 kts 306°
2026-04-29 00:53 26.28219 50.61174 993 ft 175 kts 289°
2026-04-29 00:54 26.28465 50.60483 1861 ft 161 kts 304°